Theta_e
320 325 326 325 330 330 331 333 332 330 328 328 329 329 330 329 332 346 344 341 352 348 338 341 341 340 344 347 346 343 340 341 342 343 341 340 338 334 338 335 332 327 323 322 322 321 316 312 311
321 326 326 326 330 335 335 333 333 329 328 327 327 327 328 329 336 338 344 344 352 349 336 343 340 337 340 343 347 345 343 342 343 344 342 340 338 333 333 331 327 321 319 318 316 314 313 313 314
323 327 327 327 329 333 335 331 328 329 327 326 327 328 329 334 335 338 342 344 353 350 341 347 339 337 336 340 346 346 345 344 345 344 342 340 339 333 330 327 323 319 317 315 314 314 316 317 316
324 327 328 327 328 331 333 333 330 327 327 327 326 328 330 333 334 337 342 344 345 352 347 348 338 337 334 337 345 348 347 345 346 345 343 341 336 332 328 325 320 317 315 315 315 316 318 319 320
323 327 328 330 330 328 329 330 333 326 326 327 326 327 331 333 331 337 343 344 345 349 348 348 337 336 334 334 341 347 348 347 347 346 344 341 334 331 327 322 319 317 316 316 317 318 319 321 322
324 327 329 328 327 329 330 329 332 330 328 327 326 326 329 332 330 334 343 344 344 347 349 347 338 336 335 333 334 345 348 348 349 348 347 342 335 330 326 321 318 316 317 318 318 319 320 321 322
323 326 328 328 327 327 328 327 326 328 328 330 328 329 330 331 329 329 341 343 346 346 351 349 340 336 335 333 333 338 346 348 349 349 349 343 337 332 326 321 317 316 317 318 321 319 320 321 322
323 324 325 326 328 328 327 328 327 327 328 330 329 330 331 330 328 328 331 343 344 344 354 355 345 344 341 336 335 334 340 345 348 349 348 342 336 332 325 321 318 316 316 318 319 321 323 322 322
321 323 325 324 325 326 327 328 329 327 327 329 330 330 330 329 326 327 329 341 341 343 353 354 347 347 347 346 339 334 335 339 345 345 342 338 336 330 327 323 324 319 316 317 320 318 321 322 321
321 323 322 323 324 325 325 326 327 328 328 328 330 330 329 328 326 327 328 330 342 341 344 351 344 346 346 344 345 336 335 333 333 335 334 333 332 338 338 335 327 326 326 319 318 319 318 321 322
320 322 322 323 323 324 323 324 325 326 328 328 330 331 330 328 327 327 326 327 333 340 342 348 344 345 345 343 344 343 345 342 339 337 339 337 337 338 340 339 337 336 333 327 323 322 323 323 331
319 320 321 322 323 323 323 324 324 324 327 328 328 329 329 330 328 327 325 324 328 337 340 345 345 345 344 343 345 347 344 344 344 342 341 344 337 340 341 342 341 343 341 337 332 336 337 337 337
317 318 319 321 321 321 321 321 322 323 324 326 327 327 328 328 329 327 324 322 325 330 337 338 345 347 344 344 347 347 342 343 344 345 342 342 348 340 342 345 343 345 342 339 339 336 337 338 338
317 317 318 318 318 319 320 320 320 321 323 324 325 326 326 326 325 326 323 322 329 334 339 341 344 345 347 347 350 351 349 341 343 343 344 344 344 347 346 345 345 341 340 340 339 337 336 335 335
317 316 316 317 317 317 318 318 319 320 321 321 322 323 326 324 322 323 324 326 327 329 335 336 341 342 341 342 345 347 348 347 345 344 345 346 345 347 346 347 343 342 339 336 335 334 336 335 338
316 317 317 317 317 317 317 317 318 319 320 320 320 321 322 323 323 326 322 324 325 326 327 332 335 342 340 342 342 348 347 345 345 346 346 350 347 347 351 345 344 342 340 336 334 334 334 336 336
316 315 316 317 318 318 317 317 318 318 319 321 321 321 321 322 325 325 322 322 322 324 326 327 332 337 342 342 345 343 344 344 343 342 343 345 349 348 345 346 344 342 339 336 335 337 339 341 342
316 317 318 318 318 318 317 317 317 318 318 320 320 320 320 321 322 325 322 322 322 324 327 330 330 329 345 347 347 346 347 343 344 340 340 340 343 349 347 347 345 341 337 336 335 338 341 342 343
317 318 318 318 319 317 317 318 317 318 318 319 319 320 321 322 322 321 323 321 321 324 328 328 330 324 326 338 347 346 348 347 344 343 339 339 339 340 343 345 345 340 338 334 338 339 341 342 343
317 316 316 315 316 316 316 317 317 318 319 319 320 321 321 322 321 323 323 320 322 324 326 326 328 324 320 327 331 342 346 345 347 343 342 339 340 339 337 339 342 338 339 340 338 340 343 346 347
315 315 315 316 316 317 317 318 318 318 318 319 320 320 321 321 322 323 325 320 319 325 322 323 326 327 322 323 326 325 330 337 341 345 343 343 340 342 341 341 340 337 339 341 341 341 349 348 347
315 315 316 316 317 317 317 319 319 319 319 319 319 320 320 320 321 323 323 323 320 321 322 322 323 325 326 324 328 330 331 331 331 338 341 345 344 341 340 340 342 342 340 341 344 344 347 345 336
315 316 316 316 316 317 317 317 318 319 319 320 320 320 319 318 320 318 319 319 319 320 320 320 323 325 325 326 323 330 332 329 328 332 336 338 340 346 344 343 342 342 342 340 338 347 346 341 333
316 315 315 316 316 318 316 317 318 319 320 319 319 318 318 318 318 319 318 318 319 319 319 321 323 325 326 326 327 329 332 332 331 332 333 336 337 340 347 345 343 341 343 344 345 344 343 341 337
315 316 317 318 319 320 318 318 320 320 317 317 317 317 317 318 317 320 321 320 320 320 320 321 322 324 325 326 326 326 326 328 329 330 330 332 331 331 349 347 344 341 336 339 346 345 338 344 345
318 317 319 324 324 322 320 321 319 320 318 316 317 317 316 316 316 318 320 321 319 319 321 320 322 323 324 325 326 327 326 327 328 331 331 330 331 331 331 334 343 339 334 335 335 344 343 346 349
318 320 318 319 321 324 320 319 318 318 317 316 315 316 316 316 319 318 318 319 319 319 320 321 322 321 322 324 324 325 326 329 332 332 331 331 331 332 332 332 333 342 348 349 341 347 348 350 350
318 317 320 318 322 323 318 319 319 320 319 317 315 316 317 318 317 317 318 319 319 319 319 320 321 321 322 321 322 324 324 326 329 330 329 333 337 334 332 329 332 336 350 351 353 352 350 350 351
317 320 320 320 318 321 321 318 317 318 319 318 317 316 317 318 317 318 318 318 318 318 318 321 321 322 320 321 321 320 320 323 324 327 329 331 334 334 340 339 336 331 336 352 352 354 353 354 354
315 318 319 322 325 323 320 321 316 318 318 319 318 317 317 317 317 317 317 318 318 317 317 317 319 320 319 318 318 319 320 319 321 323 326 328 331 332 335 337 342 340 337 340 352 353 355 354 355
Wind_Speed
15 18 17 15 6 7 15 18 21 2 6 6 12 10 9 14 15 6 22 13 23 26 30 31 30 28 25 23 22 22 21 20 19 17 16 15 14 13 12 11 10 9 8 7 5 4 4 5 5
15 16 13 6 8 11 14 18 19 8 15 13 10 7 10 4 17 9 18 11 19 25 28 27 29 28 25 24 23 22 22 21 19 18 16 15 14 13 12 10 9 8 8 7 6 4 4 5 5
18 14 6 4 10 13 16 11 16 10 10 4 3 2 7 6 15 8 14 8 17 23 24 24 29 27 25 23 23 23 22 21 19 17 16 15 13 13 11 10 9 7 7 6 5 4 3 3 3
11 8 6 10 16 18 22 20 9 15 7 4 4 4 5 14 7 11 10 4 5 21 21 23 30 28 26 23 21 22 21 21 20 18 16 15 14 12 11 9 9 8 7 6 5 3 2 1 1
16 7 11 16 17 17 17 18 14 9 13 4 5 10 2 13 10 12 10 6 10 22 23 24 31 30 28 27 23 22 21 20 18 18 16 15 14 13 12 10 8 7 6 5 5 4 3 2 1
10 11 13 15 19 20 15 4 12 9 16 19 11 2 9 15 15 12 9 8 10 22 28 26 30 31 29 28 27 24 23 20 17 16 15 15 15 14 12 10 8 7 6 6 5 4 4 4 4
14 12 18 21 19 22 17 15 10 13 16 22 16 15 4 17 13 12 4 2 7 20 28 24 29 31 28 27 27 25 23 21 19 17 15 15 14 13 12 11 10 8 7 7 6 5 6 6 5
13 13 23 20 18 22 19 11 13 10 12 16 13 12 4 10 15 15 12 4 7 17 26 21 26 26 24 25 25 25 23 21 20 18 16 15 15 14 13 12 11 10 9 8 7 7 8 8 9
20 15 16 24 23 20 20 17 16 15 10 14 12 21 23 7 14 18 13 3 4 16 27 21 23 24 21 18 22 23 22 21 20 18 17 16 14 14 13 13 10 10 10 10 9 9 10 11 12
18 17 25 22 22 20 21 21 18 18 15 14 19 18 23 13 9 17 16 13 6 8 22 25 25 24 22 21 20 23 21 22 21 18 17 18 15 13 11 10 12 12 11 13 13 13 13 15 13
21 22 22 23 21 22 23 24 23 16 15 14 20 23 19 18 11 12 19 18 12 8 11 26 28 27 23 21 23 20 18 19 20 20 18 15 14 14 15 15 16 14 15 16 14 15 16 15 13
24 24 24 24 23 23 23 23 23 24 15 19 20 21 24 19 3 10 17 26 10 9 9 18 27 29 24 22 23 18 21 20 20 22 21 17 17 16 17 17 14 13 11 11 15 17 15 13 11
22 23 22 22 22 24 22 26 25 23 21 17 17 15 15 19 16 7 9 20 28 6 14 15 24 23 23 24 14 22 25 23 22 21 24 23 17 20 19 15 16 19 12 16 12 16 18 17 18
18 19 19 21 21 21 23 20 22 26 22 17 18 17 15 14 14 19 6 4 12 8 10 12 17 22 18 17 11 7 14 25 24 23 26 26 24 19 18 20 15 17 14 16 17 17 19 24 25
15 18 19 21 17 21 21 24 25 23 23 21 22 21 16 15 20 19 14 11 4 2 7 8 3 16 19 26 25 18 8 10 16 20 23 29 27 23 21 18 22 21 20 19 19 20 19 22 21
16 16 17 19 23 24 20 26 23 21 20 23 23 20 19 13 17 15 12 15 11 5 3 11 5 4 16 19 18 16 15 10 16 9 15 24 25 25 18 23 23 23 22 22 24 24 24 24 24
14 16 21 22 22 19 24 26 22 21 20 20 19 15 17 10 13 13 12 17 13 9 5 4 15 2 16 20 21 17 18 17 16 21 14 16 21 24 28 26 24 23 24 25 24 22 23 21 22
18 19 15 17 14 9 14 18 17 21 18 20 15 13 12 13 13 11 19 19 15 11 8 9 8 16 15 21 24 16 19 20 22 25 24 26 24 24 27 27 29 24 29 27 28 25 23 23 20
18 18 17 20 19 15 16 16 14 17 18 17 13 14 13 14 12 24 24 21 16 12 8 7 10 12 13 14 16 15 17 19 22 23 31 27 29 32 31 31 26 30 28 32 25 28 24 22 21
14 17 19 20 20 19 21 21 17 16 20 20 18 16 16 16 13 12 16 14 20 13 7 7 5 6 11 7 12 19 17 15 17 26 29 31 28 32 33 33 33 29 27 27 30 28 21 11 15
15 18 18 20 19 21 21 20 18 22 22 23 23 19 14 14 15 15 11 15 8 14 12 7 8 8 6 8 8 8 12 26 17 18 27 29 33 27 32 29 30 28 27 26 30 27 15 6 18
16 18 17 18 16 16 14 16 20 20 18 17 12 16 15 18 14 18 18 13 9 7 6 9 8 7 8 6 5 7 10 9 22 29 27 23 35 35 35 32 34 33 30 23 25 21 19 16 12
17 15 17 20 18 18 22 14 19 20 21 21 19 17 12 7 9 4 4 7 9 4 7 11 8 6 8 9 13 10 10 10 13 21 24 26 30 33 35 34 42 30 27 26 30 19 21 25 26
16 14 17 21 15 16 25 20 21 19 21 17 13 10 8 10 8 11 8 5 8 15 14 9 8 8 7 8 8 11 12 10 11 13 12 17 19 25 34 40 42 32 25 28 21 25 22 33 41
17 18 13 15 13 17 23 20 10 21 6 7 10 9 6 7 8 11 13 15 20 19 15 12 12 10 10 9 9 11 11 14 11 14 17 16 20 22 27 39 36 32 34 30 25 25 28 45 43
18 17 10 14 15 17 24 13 9 12 19 12 9 15 14 12 7 9 11 6 4 6 12 11 9 9 12 11 10 10 12 14 16 17 19 20 20 21 22 21 29 39 38 34 30 28 39 45 39
16 16 18 12 9 12 17 28 25 17 17 8 12 9 8 7 9 7 5 5 10 13 12 8 12 12 13 13 11 11 13 15 16 17 20 22 21 23 21 25 25 24 28 37 35 33 37 36 37
19 16 15 7 6 11 16 17 13 14 13 18 14 12 10 9 9 5 8 11 13 10 12 14 13 14 18 12 11 13 15 16 15 15 20 19 21 23 26 31 32 23 27 33 33 33 36 37 37
12 13 7 14 14 16 16 14 6 2 9 7 13 11 11 13 9 13 10 8 10 9 12 16 19 18 10 11 12 15 17 14 16 18 20 21 21 24 23 27 29 32 27 29 31 36 35 36 36
19 14 18 6 6 12 7 17 12 5 5 10 26 12 14 10 12 11 9 10 8 7 13 13 14 10 7 11 15 14 13 15 17 18 20 23 24 25 25 27 27 28 31 29 33 35 34 35 31
Wind_Direction
318 314 312 295 250 228 253 255 261 281 347 2 30 1 342 8 30 58 49 41 118 138 158 161 159 159 167 171 170 168 167 164 164 161 152 148 145 145 147 142 138 134 130 130 130 125 108 94 84
320 306 298 277 261 257 250 242 283 57 73 41 10 331 310 325 39 67 66 35 134 146 162 167 167 163 168 174 177 175 173 171 170 166 159 156 156 150 150 150 147 146 143 139 136 124 110 99 96
296 277 287 245 247 250 258 44 352 46 82 82 344 19 335 30 45 19 7 4 136 143 166 173 171 170 169 178 182 182 180 176 175 171 168 164 164 158 159 159 157 154 147 141 134 115 103 90 87
288 277 233 257 259 255 254 289 350 322 55 355 295 329 99 62 43 11 346 311 195 153 164 182 177 176 174 178 187 188 188 183 181 179 176 172 171 170 166 171 169 168 160 145 135 134 140 71 28
264 263 268 257 246 251 276 292 294 309 316 320 214 238 202 104 51 6 358 309 223 165 164 186 184 180 179 178 188 190 192 192 191 187 184 181 179 179 177 180 190 176 165 162 163 171 185 223 236
266 249 254 256 257 253 248 162 259 262 291 309 286 249 281 88 45 1 16 319 210 167 164 186 191 186 182 183 185 191 193 196 200 200 195 191 188 189 188 186 193 194 193 187 193 199 222 225 248
249 259 253 254 261 274 265 159 188 215 267 272 330 325 119 51 20 347 40 24 235 163 158 176 186 191 188 189 188 190 196 199 202 205 207 201 198 198 198 197 202 206 213 215 220 231 244 252 258
247 245 258 260 263 259 267 164 176 213 231 238 261 284 349 44 2 338 336 73 218 176 151 163 180 189 191 192 195 192 198 204 207 209 213 209 204 206 209 209 214 219 227 233 234 242 254 261 260
241 245 250 252 255 261 268 266 185 186 220 236 255 263 313 60 10 336 345 102 214 193 150 156 172 182 186 192 196 196 198 204 210 211 212 211 209 218 219 219 223 233 241 246 248 251 255 260 264
235 241 243 248 258 269 272 271 263 176 191 220 232 257 277 324 31 337 331 333 139 221 169 161 169 181 185 190 200 199 201 204 209 213 214 209 201 218 216 235 231 240 245 249 251 253 258 262 266
231 244 254 253 258 261 264 273 279 250 200 209 212 253 257 283 14 337 337 341 334 254 204 159 167 179 184 195 195 201 196 203 206 204 204 215 197 208 221 221 227 239 248 248 255 258 259 261 257
250 246 251 257 263 271 276 281 273 271 253 195 206 218 250 252 252 342 342 330 309 337 290 162 168 177 182 193 189 190 193 197 198 201 199 200 199 213 212 215 230 230 231 239 229 253 261 251 245
247 254 256 266 262 264 273 272 281 276 273 279 208 192 219 255 259 241 301 319 331 303 301 195 167 167 186 200 187 187 191 198 197 201 202 199 206 206 214 217 225 213 213 235 223 234 245 238 237
272 267 269 264 270 273 267 261 269 267 267 261 266 190 204 236 258 269 202 286 355 17 349 328 167 173 178 212 225 241 197 195 198 200 203 202 201 211 212 217 218 230 221 227 229 234 234 238 240
275 269 268 269 261 264 262 259 245 259 265 265 255 259 217 206 248 241 205 134 138 61 281 298 0 187 204 217 230 240 233 207 195 202 206 205 200 208 216 215 220 226 227 231 236 237 242 240 247
270 264 265 258 247 243 242 256 255 253 252 255 257 258 255 214 234 230 160 134 133 141 228 231 230 215 215 216 213 215 224 215 238 238 213 198 203 205 217 215 225 221 228 235 238 242 249 248 249
243 255 255 256 243 238 228 239 249 251 260 263 235 264 247 225 242 188 152 148 151 162 189 232 204 184 212 217 211 210 218 224 229 240 227 214 210 214 216 222 223 225 226 232 237 240 245 250 248
270 263 273 264 255 203 239 264 275 272 267 268 226 246 263 271 275 208 178 159 156 167 182 180 185 205 178 202 209 192 208 218 227 228 233 226 217 209 217 222 226 232 228 233 236 232 242 247 255
276 294 298 292 298 310 275 248 260 286 281 257 226 232 233 244 234 258 170 158 154 161 192 214 186 159 191 191 184 185 200 218 227 231 232 227 225 227 224 228 226 231 238 238 243 240 239 242 250
294 286 279 279 278 277 275 270 272 271 275 274 266 222 212 217 215 250 155 148 155 168 197 247 250 196 170 181 211 219 202 206 237 234 233 232 232 226 230 233 221 225 243 243 248 247 234 244 251
260 264 274 280 291 290 292 282 275 267 258 255 256 258 248 224 204 197 188 166 201 162 172 219 249 259 197 190 239 240 254 231 242 256 237 234 226 223 224 223 228 224 234 244 254 250 250 232 263
272 275 282 291 289 283 281 281 276 283 285 244 263 230 243 229 243 190 200 154 182 245 208 187 215 232 258 181 231 240 238 230 231 241 246 251 233 223 226 229 229 230 234 237 257 260 222 221 268
270 290 301 297 288 286 273 268 272 267 261 251 243 210 220 224 145 168 171 165 192 252 256 259 253 255 255 239 170 233 255 241 253 246 240 245 250 232 228 231 228 227 235 235 238 247 224 238 216
265 289 283 277 270 258 262 256 262 256 255 272 218 171 184 187 173 164 171 155 192 217 227 213 258 269 265 268 259 209 217 247 255 268 261 268 265 254 247 231 226 235 236 236 231 235 252 246 253
239 259 260 261 245 251 254 262 339 292 247 347 133 152 171 174 175 168 172 191 203 204 205 199 224 242 259 256 256 262 270 277 280 286 280 275 274 271 239 224 228 232 234 232 218 213 254 248 245
278 247 254 264 278 288 300 285 261 271 319 172 151 174 173 196 190 232 216 168 225 227 195 206 233 224 252 261 272 249 245 251 253 256 252 256 260 267 272 266 250 239 238 248 250 229 236 240 239
285 272 285 306 314 290 280 285 285 251 227 236 173 189 206 184 198 216 185 226 241 223 221 192 208 227 248 251 253 273 278 269 260 268 271 269 270 273 278 281 287 275 260 249 247 227 228 233 241
263 263 251 233 253 263 265 270 318 333 329 213 191 201 199 199 204 232 250 240 242 237 224 205 221 236 227 242 270 263 261 267 278 281 281 280 274 271 273 272 273 282 254 238 231 227 234 237 240
302 307 329 316 277 263 272 272 201 273 0 307 236 206 194 212 207 227 227 253 267 255 260 224 213 220 231 252 246 259 275 272 265 274 277 281 277 271 272 266 269 270 266 240 229 231 232 231 230
309 244 265 246 307 276 259 270 286 141 336 25 313 279 264 212 233 248 229 225 241 271 271 272 258 219 251 268 265 265 261 274 287 271 270 275 276 277 278 275 262 260 258 251 230 234 234 226 215